Weather History for KNUW - January, 2013

Change the Weather History Date:

Wednesday, January 2, 2013

  Actual Average Record
Temperature  
Mean Temperature 38 °F -  
Max Temperature 45 °F 44 °F 57 °F (2012)
Min Temperature 27 °F 34 °F 23 °F (2011)
Degree Days  
Heating Degree Days 28    
Moisture  
Dew Point 29 °F    
Average Humidity 78    
Maximum Humidity 92    
Minimum Humidity 56    
Precipitation  
Precipitation 0.00 in - - ()
Sea Level Pressure  
Sea Level Pressure 30.29 in    
Wind  
Wind Speed 4 mph (ESE)    
Max Wind Speed 10 mph    
Max Gust Speed -    
Visibility 10 miles    
Events      
Averages and records for this station are not official NWS values.
T = Trace of Precipitation, MM = Missing Value Source: NWS Daily Summary

Daily Weather History Graph

Daily Weather History Graph

Search for Another Location

Airport or City:

Trip Planner

Search our weather history database for the weather conditions in past years. The results will help you decide how hot, cold, wet, or windy it might be!

Date:

Astronomy

Jan. 02, 2013 Rise Set
Actual Time 8:01 AM PST 4:28 PM PST
Civil Twilight 7:25 AM PST 5:04 PM PST
Nautical Twilight 6:45 AM PST 5:44 PM PST
Astronomical Twilight 6:07 AM PST 6:22 PM PST
Moon 10:35 PM PST (1/2) 10:19 AM PST (1/2)
Length of Visible Light 9h 39m
Length of Day
8h 26m
Waning Gibbous, 74% of the Moon is Illuminated
Jan 2
Waning Gibbous
Jan 4
Last Quarter
Jan 11
New
Jan 18
First Quarter
Jan 26
Full

Hourly Weather History & Observations

Time (PST) Temp. Windchill Dew Point Humidity Pressure Visibility Wind Dir Wind Speed Gust Speed Precip Events Conditions
12:56 AM 30.0 °F 25.2 °F 28.0 °F 92% 30.37 in 10.0 mi ESE 4.6 mph - N/A   Mostly Cloudy
1:56 AM 33.1 °F 28.7 °F 28.9 °F 85% 30.36 in 10.0 mi ENE 4.6 mph - N/A   Mostly Cloudy
2:56 AM 32.0 °F 28.7 °F 28.0 °F 85% 30.35 in 10.0 mi SE 3.5 mph - N/A   Mostly Cloudy
3:56 AM 33.1 °F - 28.9 °F 85% 30.35 in 10.0 mi Calm Calm - N/A   Mostly Cloudy
4:56 AM 33.1 °F - 28.0 °F 82% 30.33 in 10.0 mi Calm Calm - N/A   Mostly Cloudy
5:56 AM 35.1 °F - 30.0 °F 82% 30.32 in 10.0 mi Calm Calm - N/A   Mostly Cloudy
6:56 AM 33.1 °F - 28.0 °F 82% 30.32 in 10.0 mi Calm Calm - N/A   Mostly Cloudy
7:56 AM 30.0 °F - 26.1 °F 85% 30.32 in 10.0 mi Calm Calm - N/A   Overcast
8:56 AM 32.0 °F 28.7 °F 28.9 °F 88% 30.33 in 10.0 mi SE 3.5 mph - N/A   Mostly Cloudy
9:56 AM 37.9 °F 32.1 °F 34.0 °F 86% 30.33 in 10.0 mi East 8.1 mph - N/A   Overcast
10:56 AM 39.9 °F 33.4 °F 33.1 °F 77% 30.32 in 10.0 mi ESE 10.4 mph - N/A   Mostly Cloudy
11:56 AM 42.1 °F 36.6 °F 32.0 °F 67% 30.29 in 10.0 mi East 9.2 mph - N/A   Mostly Cloudy
12:56 PM 44.1 °F 39.0 °F 30.0 °F 58% 30.28 in 10.0 mi East 9.2 mph - N/A   Mostly Cloudy
1:56 PM 45.0 °F 41.2 °F 30.9 °F 58% 30.27 in 10.0 mi ESE 6.9 mph - N/A   Mostly Cloudy
2:56 PM 45.0 °F 42.6 °F 30.0 °F 56% 30.27 in 10.0 mi ESE 4.6 mph - N/A   Scattered Clouds
3:56 PM 41.0 °F - 28.9 °F 62% 30.27 in 10.0 mi Calm Calm - N/A   Mostly Cloudy
4:56 PM 39.0 °F - 30.0 °F 70% 30.27 in 9.0 mi Calm Calm - N/A   Partly Cloudy
5:56 PM 33.1 °F 27.7 °F 28.0 °F 82% 30.26 in 10.0 mi East 5.8 mph - N/A   Partly Cloudy
6:56 PM 33.1 °F 28.7 °F 28.9 °F 85% 30.25 in 10.0 mi SE 4.6 mph - N/A   Partly Cloudy
7:56 PM 33.1 °F 27.7 °F 28.9 °F 85% 30.24 in 10.0 mi East 5.8 mph - N/A   Partly Cloudy
8:56 PM 34.0 °F 31.0 °F 28.0 °F 79% 30.23 in 10.0 mi East 3.5 mph - N/A   Partly Cloudy
9:56 PM 32.0 °F 26.4 °F 27.0 °F 82% 30.23 in 10.0 mi East 5.8 mph - N/A   Partly Cloudy
10:56 PM 34.0 °F 29.8 °F 27.0 °F 75% 30.23 in 10.0 mi East 4.6 mph - N/A   Partly Cloudy
11:56 PM 27.0 °F 23.0 °F 21.9 °F 81% 30.22 in 10.0 mi SE 3.5 mph - N/A   Partly Cloudy